Date String (YYYY-MM-DD hh:mm:ss) UTC,Instrument flags,Ambient pressure (hPa),Sample flow (lpm),Bypass flow (lpm),Sample temperature (°C),Ambient temperature (°C),ASC tube jacket temperature (°C),LED temperature (°C),Box temperature (°C),Sample RH (%),Span deviation,Mass concentration (μg/m³),Mass concentration (μg/m³),Mass concentration (μg/m³)
DateTimeUTC,F1_M11,P_M11,Q1_M11,Q2_M11,T1_M11,T2_M11,T3_M11,T4_M11,T5_M11,U1_M11,ZSPAN_M11,X2_M11,X0_M11,X1_M11
2022-10-14 22:00:00,,0821.6,5.02,0.00,29.8,27.9,00.0,38.6,31.6,08.4,0000.0,0002.93,0009.14,0002.37
2022-10-14 22:01:00,,0821.6,4.99,0.00,29.8,28.2,00.0,38.6,31.7,08.2,0000.0,0002.91,0008.63,0002.37
2022-10-14 22:02:00,,0821.7,5.00,0.00,29.8,28.4,00.0,38.6,31.7,08.0,0000.0,0002.95,0008.90,0002.39
2022-10-14 22:03:00,,0821.7,5.02,0.00,29.9,28.6,00.0,38.6,31.8,07.8,0000.0,0003.06,0008.68,0002.39
2022-10-14 22:04:00,,0821.7,5.00,0.00,29.9,28.7,00.0,38.6,31.7,08.1,0000.0,0003.12,0008.99,0002.41
2022-10-14 22:05:00,,0821.7,5.00,0.00,29.9,28.8,00.0,38.6,31.8,08.2,0000.0,0003.15,0008.35,0002.42
2022-10-14 22:06:00,,0821.7,5.00,0.00,29.9,28.9,00.0,38.7,31.9,08.2,0000.0,0003.16,0008.00,0002.42
2022-10-14 22:07:00,,0821.7,5.00,0.00,30.0,29.0,00.0,38.7,31.9,08.2,0000.0,0003.16,0007.60,0002.43
2022-10-14 22:08:00,,0821.7,4.99,0.00,30.0,29.1,00.0,38.7,32.0,07.9,0000.0,0003.18,0007.69,0002.44
2022-10-14 22:09:00,,0821.7,4.99,0.00,30.0,29.1,00.0,38.7,32.0,08.0,0000.0,0003.21,0008.78,0002.46
2022-10-14 22:10:00,,0821.7,5.01,0.00,30.0,28.0,00.0,38.7,31.9,07.9,0000.0,0003.21,0008.78,0002.47
2022-10-14 22:11:00,,0821.8,5.00,0.00,30.0,27.2,00.0,38.7,31.8,08.0,0000.0,0003.23,0008.88,0002.48
2022-10-14 22:12:00,,0821.8,4.99,0.00,30.0,27.2,00.0,38.6,31.7,08.2,0000.0,0003.26,0008.97,0002.49
2022-10-14 22:13:00,,0821.8,5.01,0.00,29.9,27.4,00.0,38.6,31.7,08.3,0000.0,0003.27,0008.90,0002.50
2022-10-14 22:14:00,,0821.8,4.99,0.00,29.9,27.7,00.0,38.6,31.7,08.5,0000.0,0003.27,0009.08,0002.54
2022-10-14 22:15:00,,0821.8,5.01,0.00,29.9,28.0,00.0,38.6,31.7,08.6,0000.0,0003.29,0008.70,0002.55
2022-10-14 22:16:00,,0821.8,4.99,0.00,29.9,28.3,00.0,38.6,31.7,08.2,0000.0,0003.31,0008.74,0002.56
2022-10-14 22:17:00,,0821.8,4.99,0.00,29.9,28.5,00.0,38.6,31.8,08.2,0000.0,0003.35,0009.19,0002.58
2022-10-14 22:18:00,,0821.8,5.03,0.00,29.9,28.6,00.0,38.7,31.9,08.2,0000.0,0003.36,0009.15,0002.58
2022-10-14 22:19:00,,0821.7,5.00,0.00,29.9,28.8,00.0,38.7,31.9,08.1,0000.0,0003.33,0008.94,0002.58
2022-10-14 22:20:00,,0821.8,5.00,0.00,30.0,28.9,00.0,38.7,31.9,08.0,0000.0,0003.34,0008.05,0002.58
2022-10-14 22:21:00,,0821.8,4.99,0.00,30.0,29.0,00.0,38.7,31.9,08.1,0000.0,0003.36,0008.24,0002.57
2022-10-14 22:22:00,,0821.9,5.00,0.00,30.0,29.1,00.0,38.7,32.0,08.2,0000.0,0003.35,0008.69,0002.56
2022-10-14 22:23:00,,0821.8,5.00,0.00,30.1,29.2,00.0,38.8,32.0,08.5,0000.0,0003.32,0008.55,0002.56
2022-10-14 22:24:00,,0821.8,4.98,0.00,30.1,29.1,00.0,38.8,32.0,08.6,0000.0,0003.32,0008.47,0002.56
2022-10-14 22:25:00,,0821.8,5.02,0.00,30.1,27.9,00.0,38.8,31.9,08.8,0000.0,0003.37,0008.71,0002.58
2022-10-14 22:26:00,,0821.8,4.99,0.00,30.0,26.6,00.0,38.7,31.7,08.8,0000.0,0003.38,0009.38,0002.59
2022-10-14 22:27:00,,0821.8,5.01,0.00,30.0,26.5,00.0,38.7,31.7,08.6,0000.0,0003.38,0009.59,0002.62
2022-10-14 22:28:00,,0821.8,5.00,0.00,29.9,26.7,00.0,38.6,31.5,08.8,0000.0,0003.38,0009.33,0002.64
2022-10-14 22:29:00,,0821.9,5.01,0.00,29.8,27.1,00.0,38.6,31.5,08.9,0000.0,0003.41,0009.44,0002.66
2022-10-14 22:30:00,,0822.1,4.99,0.00,29.8,27.5,00.0,38.6,31.5,08.7,0000.0,0003.45,0009.94,0002.68
2022-10-14 22:31:00,,0822.0,5.01,0.00,29.8,27.8,00.0,38.6,31.6,08.3,0000.0,0003.49,0010.13,0002.70
2022-10-14 22:32:00,,0822.0,4.99,0.00,29.8,28.1,00.0,38.6,31.6,08.4,0000.0,0003.50,0009.90,0002.74
2022-10-14 22:33:00,,0822.3,5.01,0.00,29.8,28.3,00.0,38.6,31.7,08.3,0000.0,0003.52,0009.44,0002.77
2022-10-14 22:34:00,,0822.3,4.99,0.00,29.8,28.5,00.0,38.6,31.7,08.5,0000.0,0003.56,0009.50,0002.79
2022-10-14 22:35:00,,0821.9,5.01,0.00,29.8,28.6,00.0,38.6,31.8,08.8,0000.0,0003.55,0009.54,0002.80
2022-10-14 22:36:00,,0821.9,5.00,0.00,29.9,28.7,00.0,38.6,31.8,08.8,0000.0,0003.49,0009.19,0002.79
2022-10-14 22:37:00,,0821.9,5.00,0.00,29.9,28.9,00.0,38.6,31.9,08.6,0000.0,0003.46,0009.41,0002.78
2022-10-14 22:38:00,,0822.0,5.00,0.00,29.9,28.9,00.0,38.6,31.9,08.7,0000.0,0003.48,0009.48,0002.77
2022-10-14 22:39:00,,0821.9,5.00,0.00,30.0,29.0,00.0,38.7,31.9,08.6,0000.0,0003.49,0009.39,0002.78
2022-10-14 22:40:00,,0821.9,4.99,0.00,30.0,28.4,00.0,38.7,31.9,08.8,0000.0,0003.49,0009.64,0002.77
2022-10-14 22:41:00,,0822.1,5.01,0.00,30.0,27.1,00.0,38.6,31.7,08.9,0000.0,0003.49,0009.35,0002.78
2022-10-14 22:42:00,,0821.9,5.01,0.00,29.9,26.9,00.0,38.6,31.7,08.6,0000.0,0003.47,0009.11,0002.78
2022-10-14 22:43:00,,0821.9,4.99,0.00,29.9,27.1,00.0,38.6,31.6,08.6,0000.0,0003.47,0009.08,0002.78
2022-10-14 22:44:00,,0821.9,4.99,0.00,29.8,27.5,00.0,38.6,31.6,08.7,0000.0,0003.46,0009.24,0002.79
2022-10-14 22:45:00,,0821.9,5.01,0.00,29.8,27.8,00.0,38.6,31.6,08.7,0000.0,0003.44,0009.41,0002.80
2022-10-14 22:46:00,,0821.9,5.00,0.00,29.8,28.0,00.0,38.6,31.7,08.6,0000.0,0003.49,0009.69,0002.82
2022-10-14 22:47:00,,0821.9,5.01,0.00,29.8,28.3,00.0,38.6,31.7,08.7,0000.0,0003.55,0009.66,0002.82
2022-10-14 22:48:00,,0821.9,5.00,0.00,29.8,28.4,00.0,38.6,31.8,08.6,0000.0,0003.58,0009.05,0002.83
2022-10-14 22:49:00,,0822.0,5.00,0.00,29.9,28.6,00.0,38.6,31.8,08.6,0000.0,0003.56,0008.95,0002.84
2022-10-14 22:50:00,,0821.9,5.00,0.00,29.9,28.7,00.0,38.6,31.8,08.6,0000.0,0003.54,0009.91,0002.82
2022-10-14 22:51:00,,0821.8,5.00,0.00,29.9,28.8,00.0,38.6,31.9,08.5,0000.0,0003.58,0010.22,0002.82
2022-10-14 22:52:00,,0821.8,5.02,0.00,30.0,28.9,00.0,38.6,31.9,08.6,0000.0,0003.63,0010.85,0002.84
2022-10-14 22:53:00,,0822.1,4.98,0.00,30.0,28.0,00.0,38.6,31.9,08.6,0000.0,0003.67,0011.27,0002.85
2022-10-14 22:54:00,,0821.9,5.01,0.00,29.9,26.5,00.0,38.6,31.6,08.9,0000.0,0003.71,0011.82,0002.84
2022-10-14 22:55:00,,0821.9,5.00,0.00,29.8,26.1,00.0,38.5,31.5,09.1,0000.0,0003.75,0012.36,0002.84
2022-10-14 22:56:00,,0822.0,5.00,0.00,29.7,26.3,00.0,38.5,31.4,08.9,0000.0,0003.80,0013.06,0002.83
2022-10-14 22:57:00,,0822.0,4.98,0.00,29.7,26.7,00.0,38.5,31.3,08.9,0000.0,0003.82,0013.75,0002.83
2022-10-14 22:58:00,,0822.0,5.01,0.00,29.6,27.1,00.0,38.5,31.3,08.9,0000.0,0003.79,0014.60,0002.82
2022-10-14 22:59:00,,0822.1,5.00,0.00,29.6,27.4,00.0,38.4,31.4,08.9,0000.0,0003.77,0014.80,0002.82
